START_TIME,STEP,MOV.,M15,t_acc.,M20,t_acc.
1979-07-26 15:00:43.220 ,1,0,0.,24.0,0.,24.0
1979-07-26 15:01:07.220 ,2,1,0.,24.0,0.,24.0
1979-07-26 15:01:31.220 ,2,0,0.,24.0,0.,24.0
1979-07-26 15:01:55.220 ,3,1,0.,24.0,0.,24.0
1979-07-26 15:02:19.220 ,3,0,0.,24.0,0.,24.0
1979-07-26 15:02:43.220 ,4,1,0.,24.0,0.,24.0
1979-07-26 15:03:07.220 ,4,0,0.,24.0,0.,24.0
1979-07-26 15:03:31.220 ,5,1,0.,24.0,0.,24.0
1979-07-26 15:03:55.220 ,5,0,0.,24.0,0.,24.0
1979-07-26 15:04:19.220 ,6,1,0.,24.0,0.,24.0
1979-07-26 15:04:43.220 ,6,0,0.,24.0,0.,24.0
1979-07-26 15:05:07.220 ,7,1,0.,24.0,0.,24.0
1979-07-26 15:05:31.220 ,7,0,0.,24.0,0.,24.0
1979-07-26 15:05:55.220 ,7,1,0.,24.0,0.,24.0
1979-07-26 15:06:19.220 ,7,0,0.,24.0,0.,24.0
1979-07-26 15:06:43.220 ,6,1,0.,24.0,0.,24.0
1979-07-26 15:07:07.220 ,6,0,0.,24.0,0.,24.0
1979-07-26 15:07:31.220 ,5,1,0.,24.0,0.,24.0
1979-07-26 15:07:55.220 ,5,0,0.,24.0,0.,24.0
1979-07-26 15:08:19.220 ,4,1,0.,24.0,0.,24.0
1979-07-26 15:08:43.220 ,4,0,0.,24.0,0.,24.0
1979-07-26 15:09:07.220 ,3,1,0.,24.0,0.,24.0
1979-07-26 15:09:31.220 ,3,0,0.,24.0,0.,24.0
1979-07-26 15:09:55.220 ,2,1,0.,24.0,0.,24.0
1979-07-26 15:10:19.220 ,2,0,0.,24.0,0.,24.0
1979-07-26 15:10:43.220 ,1,1,0.,24.0,0.,24.0
1979-07-26 15:11:07.220 ,1,0,0.,24.0,0.,24.0
1979-07-26 15:11:31.220 ,0,1,0.,24.0,0.,24.0
1979-07-26 15:11:55.220 ,0,0,0.,24.0,0.,24.0
1979-07-26 15:12:19.220 ,0,1,0.,24.0,0.,24.0
1979-07-26 15:12:43.220 ,0,0,0.,24.0,0.,24.0
1979-07-26 15:13:07.220 ,1,1,0.,24.0,0.,24.0
1979-07-26 15:13:31.220 ,1,0,0.,24.0,0.,24.0
1979-07-26 15:13:55.220 ,2,1,0.,24.0,0.,24.0
1979-07-26 15:14:19.220 ,2,0,0.,24.0,0.,24.0
1979-07-26 15:14:43.220 ,3,1,0.,24.0,0.,24.0
1979-07-26 15:15:07.220 ,3,0,0.,24.0,0.,24.0
1979-07-26 15:15:31.220 ,4,1,0.,24.0,0.,24.0
1979-07-26 15:15:55.220 ,4,0,0.,24.0,0.,24.0
1979-07-26 15:16:19.220 ,5,1,0.,24.0,0.,24.0
1979-07-26 15:16:43.220 ,5,0,0.,24.0,0.,24.0
1979-07-26 15:17:07.220 ,6,1,0.,24.0,0.,24.0
1979-07-26 15:17:31.220 ,6,0,0.,24.0,0.,24.0
1979-07-26 15:17:55.220 ,7,1,0.,24.0,0.,24.0
1979-07-26 15:18:19.220 ,7,0,0.,24.0,0.,24.0
1979-07-26 15:18:43.220 ,7,1,0.,24.0,0.,24.0
1979-07-26 15:19:07.220 ,7,0,0.,24.0,0.,24.0
1979-07-26 15:19:31.220 ,6,1,0.,24.0,0.,24.0
1979-07-26 15:19:55.220 ,6,0,0.,24.0,0.,24.0
1979-07-26 15:20:19.220 ,5,1,0.,24.0,0.,24.0
1979-07-26 15:20:43.220 ,5,0,0.,24.0,0.,24.0
1979-07-26 15:21:07.220 ,4,1,0.,24.0,0.,24.0
1979-07-26 15:21:31.220 ,4,0,0.,24.0,0.,24.0
1979-07-26 15:21:55.220 ,3,1,0.,24.0,0.,24.0
1979-07-26 15:22:19.220 ,3,0,0.,24.0,0.,24.0
1979-07-26 15:22:43.220 ,2,1,0.,24.0,0.,24.0
1979-07-26 15:23:07.220 ,2,0,0.,24.0,0.,24.0
1979-07-26 15:23:31.220 ,1,1,0.,24.0,0.,24.0
1979-07-26 15:23:55.220 ,1,0,0.,24.0,0.,24.0
1979-07-26 15:24:19.220 ,0,1,0.,24.0,0.,24.0
1979-07-26 15:24:43.220 ,0,0,0.,24.0,0.,24.0
1979-07-26 15:25:07.220 ,0,1,0.,24.0,0.,24.0
1979-07-26 15:25:31.220 ,0,0,0.,24.0,0.,24.0
1979-07-26 15:25:55.220 ,1,1,0.,24.0,0.,24.0
1979-07-26 15:26:19.220 ,1,0,0.,24.0,0.,24.0
1979-07-26 15:26:43.220 ,2,1,1.,24.0,0.,24.0
1979-07-26 15:27:07.220 ,2,0,0.,24.0,0.,24.0
1979-07-26 15:27:31.220 ,3,1,0.,24.0,0.,24.0
1979-07-26 15:27:55.220 ,3,0,0.,24.0,0.,24.0
1979-07-26 15:28:19.220 ,4,1,0.,24.0,0.,24.0
1979-07-26 15:28:43.220 ,4,0,0.,24.0,0.,24.0
1979-07-26 15:29:07.220 ,5,1,0.,24.0,0.,24.0
1979-07-26 15:29:31.220 ,5,0,0.,24.0,0.,24.0
1979-07-26 15:29:55.220 ,6,1,0.,24.0,0.,24.0
1979-07-26 15:30:19.220 ,6,0,0.,24.0,0.,24.0
1979-07-26 15:30:43.220 ,7,0,0.,24.0,0.,24.0
1979-07-26 15:31:07.220 ,7,0,0.,24.0,0.,24.0
1979-07-26 15:31:31.220 ,3,1,0.,24.0,0.,24.0
1979-07-26 15:31:55.220 ,0,1,0.,24.0,0.,24.0
1979-07-26 15:32:19.220 ,4,1,0.,24.0,0.,24.0
1979-07-26 15:32:43.220 ,7,1,0.,24.0,0.,24.0
1979-07-26 15:33:07.220 ,3,1,0.,24.0,0.,24.0
1979-07-26 15:33:31.220 ,0,1,0.,24.0,0.,24.0
1979-07-26 15:33:55.220 ,4,1,0.,24.0,0.,24.0
1979-07-26 15:34:19.220 ,7,1,0.,24.0,0.,24.0
1979-07-26 15:34:43.220 ,3,1,0.,24.0,0.,24.0
1979-07-26 15:35:07.220 ,0,1,0.,24.0,0.,24.0
1979-07-26 15:35:31.220 ,4,1,0.,24.0,0.,24.0
1979-07-26 15:35:55.220 ,7,1,0.,24.0,0.,24.0
1979-07-26 15:36:19.220 ,3,1,0.,24.0,0.,24.0
1979-07-26 15:36:43.220 ,0,1,0.,24.0,0.,24.0
1979-07-26 15:37:07.220 ,4,1,0.,24.0,0.,24.0
1979-07-26 15:37:31.220 ,7,1,0.,24.0,0.,24.0
1979-07-26 15:37:55.220 ,3,1,0.,24.0,0.,24.0
1979-07-26 15:38:19.220 ,0,1,0.,24.0,0.,24.0
1979-07-26 15:38:43.220 ,4,1,0.,24.0,0.,24.0
1979-07-26 15:39:07.220 ,7,1,0.,24.0,0.,24.0
1979-07-26 15:39:31.220 ,3,1,0.,24.0,0.,24.0
1979-07-26 15:39:55.220 ,0,1,0.,24.0,0.,24.0
1979-07-26 15:40:19.220 ,4,1,0.,24.0,0.,24.0
1979-07-26 15:40:43.220 ,7,1,0.,24.0,0.,24.0
1979-07-26 15:41:07.220 ,3,1,0.,24.0,0.,24.0
1979-07-26 15:41:31.220 ,0,1,0.,24.0,0.,24.0
1979-07-26 15:41:55.220 ,0,0,0.,24.0,0.,24.0
1979-07-26 15:42:19.220 ,0,0,0.,24.0,0.,24.0
1979-07-26 15:42:43.220 ,5,1,0.,24.0,0.,24.0
1979-07-26 15:43:07.220 ,5,0,0.,24.0,0.,24.0
1979-07-26 15:43:31.220 ,4,1,0.,24.0,0.,24.0
1979-07-26 15:43:55.220 ,4,0,0.,24.0,0.,24.0
1979-07-26 15:44:19.220 ,3,1,0.,24.0,0.,24.0
1979-07-26 15:44:43.220 ,3,0,0.,24.0,0.,24.0
1979-07-26 15:45:07.220 ,2,1,0.,24.0,0.,24.0
1979-07-26 15:45:31.220 ,2,0,0.,24.0,0.,24.0
1979-07-26 15:45:55.220 ,1,1,0.,24.0,0.,24.0
1979-07-26 15:46:19.220 ,1,0,0.,24.0,0.,24.0
1979-07-26 15:46:43.220 ,0,1,0.,24.0,0.,24.0
1979-07-26 15:47:07.220 ,0,0,0.,24.0,0.,24.0
1979-07-26 15:47:31.220 ,0,1,0.,24.0,0.,24.0
1979-07-26 15:47:55.220 ,0,0,0.,24.0,0.,24.0
1979-07-26 15:48:19.220 ,1,1,0.,24.0,0.,24.0
1979-07-26 15:48:43.220 ,1,0,0.,24.0,0.,24.0
1979-07-26 15:49:07.220 ,2,1,0.,24.0,0.,24.0
1979-07-26 15:49:31.220 ,2,0,0.,24.0,0.,24.0
1979-07-26 15:49:55.220 ,3,1,0.,24.0,0.,24.0
1979-07-26 15:50:19.220 ,3,0,0.,24.0,0.,24.0
1979-07-26 15:50:43.220 ,4,1,0.,24.0,0.,24.0
1979-07-26 15:51:07.220 ,4,0,0.,24.0,0.,24.0
1979-07-26 15:51:31.220 ,5,1,0.,24.0,0.,24.0
1979-07-26 15:51:55.220 ,5,0,0.,24.0,0.,24.0
1979-07-26 15:52:19.220 ,6,1,0.,24.0,0.,24.0
1979-07-26 15:52:43.220 ,6,0,0.,24.0,0.,24.0
1979-07-26 15:53:07.220 ,7,1,0.,24.0,0.,24.0
1979-07-26 15:53:31.220 ,7,0,0.,24.0,0.,24.0
1979-07-26 15:53:55.220 ,7,1,0.,24.0,0.,24.0
1979-07-26 15:54:19.220 ,7,0,0.,24.0,0.,24.0
1979-07-26 15:54:43.220 ,6,1,0.,24.0,0.,24.0
1979-07-26 15:55:07.220 ,6,0,0.,24.0,0.,24.0
1979-07-26 15:55:31.220 ,5,1,0.,24.0,0.,24.0
1979-07-26 15:55:55.220 ,5,0,0.,24.0,0.,24.0
1979-07-26 15:56:19.220 ,4,1,0.,24.0,0.,24.0
1979-07-26 15:56:43.220 ,4,0,0.,24.0,0.,24.0
1979-07-26 15:57:07.220 ,3,1,0.,24.0,0.,24.0
1979-07-26 15:57:31.220 ,3,0,0.,24.0,0.,24.0
1979-07-26 15:57:55.220 ,2,1,0.,24.0,0.,24.0
1979-07-26 15:58:19.220 ,2,0,0.,24.0,0.,24.0
1979-07-26 15:58:43.220 ,1,1,0.,24.0,0.,24.0
1979-07-26 15:59:07.220 ,1,0,1.,24.0,0.,24.0
1979-07-26 15:59:31.220 ,0,1,0.,24.0,0.,24.0
1979-07-26 15:59:55.220 ,0,0,0.,24.0,0.,24.0
1979-07-26 16:00:19.220 ,0,1,0.,24.0,0.,24.0
1979-07-26 16:00:43.220 ,0,0,0.,24.0,0.,24.0
1979-07-26 16:01:07.220 ,1,1,0.,24.0,0.,24.0
1979-07-26 16:01:31.220 ,1,0,0.,24.0,0.,24.0
1979-07-26 16:01:55.220 ,2,1,0.,24.0,0.,24.0
1979-07-26 16:02:19.220 ,2,0,0.,24.0,0.,24.0
1979-07-26 16:02:43.220 ,3,1,0.,24.0,0.,24.0
1979-07-26 16:03:07.220 ,3,0,0.,24.0,0.,24.0
1979-07-26 16:03:31.220 ,4,1,1.,24.0,0.,24.0
1979-07-26 16:03:55.220 ,4,0,0.,24.0,0.,24.0
1979-07-26 16:04:19.220 ,5,1,0.,24.0,0.,24.0
1979-07-26 16:04:43.220 ,5,0,0.,24.0,0.,24.0
1979-07-26 16:05:07.220 ,6,1,0.,24.0,0.,24.0
1979-07-26 16:05:31.220 ,6,0,0.,24.0,0.,24.0
1979-07-26 16:05:55.220 ,7,1,0.,24.0,0.,24.0
1979-07-26 16:06:19.220 ,7,0,0.,24.0,0.,24.0
1979-07-26 16:06:43.220 ,7,1,0.,24.0,0.,24.0
1979-07-26 16:07:07.220 ,7,0,0.,24.0,0.,24.0
1979-07-26 16:07:31.220 ,6,1,0.,24.0,0.,24.0
1979-07-26 16:07:55.220 ,6,0,0.,24.0,0.,24.0
1979-07-26 16:08:19.220 ,5,1,0.,24.0,0.,24.0
1979-07-26 16:08:43.220 ,5,0,0.,24.0,0.,24.0
1979-07-26 16:09:07.220 ,4,1,0.,24.0,0.,24.0
1979-07-26 16:09:31.220 ,4,0,0.,24.0,0.,24.0
1979-07-26 16:09:55.220 ,3,1,0.,24.0,0.,24.0
1979-07-26 16:10:19.220 ,3,0,0.,24.0,0.,24.0
1979-07-26 16:10:43.220 ,2,1,0.,24.0,0.,24.0
1979-07-26 16:11:07.220 ,2,0,0.,24.0,0.,24.0
1979-07-26 16:11:31.220 ,1,1,0.,24.0,0.,24.0
1979-07-26 16:11:55.220 ,1,0,0.,24.0,0.,24.0
1979-07-26 16:12:19.220 ,0,1,0.,24.0,0.,24.0
1979-07-26 16:12:43.220 ,0,0,0.,24.0,0.,24.0
1979-07-26 16:13:07.220 ,0,1,0.,24.0,0.,24.0
1979-07-26 16:13:31.220 ,0,0,0.,24.0,0.,24.0
1979-07-26 16:13:55.220 ,1,1,0.,24.0,0.,24.0
1979-07-26 16:14:19.220 ,1,0,0.,24.0,0.,24.0
1979-07-26 16:14:43.220 ,2,1,0.,24.0,0.,24.0
1979-07-26 16:15:07.220 ,2,0,0.,24.0,0.,24.0
1979-07-26 16:15:31.220 ,3,1,0.,24.0,0.,24.0
1979-07-26 16:15:55.220 ,3,0,0.,24.0,0.,24.0
1979-07-26 16:16:19.220 ,4,1,0.,24.0,0.,24.0
1979-07-26 16:16:43.220 ,4,0,0.,24.0,0.,24.0
1979-07-26 16:17:07.220 ,5,1,0.,24.0,0.,24.0
1979-07-26 16:17:31.220 ,5,0,0.,24.0,0.,24.0
1979-07-26 16:17:55.220 ,6,1,0.,24.0,0.,24.0
1979-07-26 16:18:19.220 ,6,0,0.,24.0,0.,24.0
1979-07-26 16:18:43.220 ,7,0,0.,24.0,0.,24.0
1979-07-26 16:19:07.220 ,7,0,0.,24.0,0.,24.0
1979-07-26 16:19:31.220 ,3,1,0.,24.0,0.,24.0
1979-07-26 16:19:55.220 ,0,1,0.,24.0,0.,24.0
1979-07-26 16:20:19.220 ,4,1,0.,24.0,0.,24.0
1979-07-26 16:20:43.220 ,7,1,0.,24.0,0.,24.0
1979-07-26 16:21:07.220 ,3,1,0.,24.0,0.,24.0
1979-07-26 16:21:31.220 ,0,1,0.,24.0,0.,24.0
1979-07-26 16:21:55.220 ,4,1,0.,24.0,0.,24.0
1979-07-26 16:22:19.220 ,7,1,0.,24.0,0.,24.0
1979-07-26 16:22:43.220 ,3,1,0.,24.0,0.,24.0
1979-07-26 16:23:07.220 ,0,1,0.,24.0,0.,24.0
1979-07-26 16:23:31.220 ,4,1,0.,24.0,0.,24.0
1979-07-26 16:23:55.220 ,7,1,0.,24.0,0.,24.0
1979-07-26 16:24:19.220 ,3,1,0.,24.0,0.,24.0
1979-07-26 16:24:43.220 ,0,1,0.,24.0,0.,24.0
1979-07-26 16:25:07.220 ,4,1,0.,24.0,0.,24.0
1979-07-26 16:25:31.220 ,7,1,0.,24.0,0.,24.0
1979-07-26 16:25:55.220 ,3,1,0.,24.0,0.,24.0
1979-07-26 16:26:19.220 ,0,1,0.,24.0,0.,24.0
1979-07-26 16:26:43.220 ,4,1,0.,24.0,0.,24.0
1979-07-26 16:27:07.220 ,7,1,0.,24.0,0.,24.0
1979-07-26 16:27:31.220 ,3,1,0.,24.0,0.,24.0
1979-07-26 16:27:55.220 ,0,1,0.,24.0,0.,24.0
1979-07-26 16:28:19.220 ,4,1,0.,24.0,0.,24.0
1979-07-26 16:28:43.220 ,7,1,0.,24.0,0.,24.0
1979-07-26 16:29:07.220 ,3,1,0.,24.0,0.,24.0
1979-07-26 16:29:31.220 ,0,1,0.,24.0,0.,24.0
1979-07-26 16:29:55.220 ,0,0,0.,24.0,0.,24.0
1979-07-26 16:30:19.220 ,0,0,0.,24.0,0.,24.0
1979-07-26 16:30:43.220 ,5,1,0.,24.0,0.,24.0
1979-07-26 16:31:07.220 ,5,0,0.,24.0,0.,24.0
1979-07-26 16:31:31.220 ,4,1,0.,24.0,0.,24.0
1979-07-26 16:31:55.220 ,4,0,0.,24.0,0.,24.0
1979-07-26 16:32:19.220 ,3,1,0.,24.0,0.,24.0
1979-07-26 16:32:43.220 ,3,0,0.,24.0,0.,24.0
1979-07-26 16:33:07.220 ,2,1,0.,24.0,0.,24.0
1979-07-26 16:33:31.220 ,2,0,0.,24.0,0.,24.0
1979-07-26 16:33:55.220 ,1,1,0.,24.0,0.,24.0
1979-07-26 16:34:19.220 ,1,0,0.,24.0,0.,24.0
1979-07-26 16:34:43.220 ,0,1,0.,24.0,0.,24.0
1979-07-26 16:35:07.220 ,0,0,0.,24.0,0.,24.0
1979-07-26 16:35:31.220 ,0,1,0.,24.0,0.,24.0
1979-07-26 16:35:55.220 ,0,0,0.,24.0,0.,24.0
1979-07-26 16:36:19.220 ,1,1,0.,24.0,0.,24.0
1979-07-26 16:36:43.220 ,1,0,0.,24.0,0.,24.0
1979-07-26 16:37:07.220 ,2,1,0.,24.0,0.,24.0
1979-07-26 16:37:31.220 ,2,0,0.,24.0,0.,24.0
1979-07-26 16:37:55.220 ,3,1,0.,24.0,0.,24.0
1979-07-26 16:38:19.220 ,3,0,0.,24.0,0.,24.0
1979-07-26 16:38:43.220 ,4,1,0.,24.0,0.,24.0
1979-07-26 16:39:07.220 ,4,0,0.,24.0,0.,24.0
1979-07-26 16:39:31.220 ,5,1,0.,24.0,0.,24.0
1979-07-26 16:39:55.220 ,5,0,0.,24.0,0.,24.0
1979-07-26 16:40:19.220 ,6,1,0.,24.0,0.,24.0
1979-07-26 16:40:43.220 ,6,0,0.,24.0,0.,24.0
1979-07-26 16:41:07.220 ,7,1,0.,24.0,0.,24.0
1979-07-26 16:41:31.220 ,7,0,0.,24.0,0.,24.0
1979-07-26 16:41:55.220 ,7,1,0.,24.0,0.,24.0
1979-07-26 16:42:19.220 ,7,0,0.,24.0,0.,24.0
1979-07-26 16:42:43.220 ,6,1,0.,24.0,0.,24.0
1979-07-26 16:43:07.220 ,6,0,0.,24.0,0.,24.0
1979-07-26 16:43:31.220 ,5,1,0.,24.0,0.,24.0
1979-07-26 16:43:55.220 ,5,0,0.,24.0,0.,24.0
1979-07-26 16:44:19.220 ,4,1,0.,24.0,0.,24.0
1979-07-26 16:44:43.220 ,4,0,0.,24.0,0.,24.0
1979-07-26 16:45:07.220 ,3,1,0.,24.0,0.,24.0
1979-07-26 16:45:31.220 ,3,0,0.,24.0,0.,24.0
1979-07-26 16:45:55.220 ,2,1,0.,24.0,0.,24.0
1979-07-26 16:46:19.220 ,2,0,0.,24.0,0.,24.0
1979-07-26 16:46:43.220 ,1,1,0.,24.0,0.,24.0
1979-07-26 16:47:07.220 ,1,0,0.,24.0,0.,24.0
1979-07-26 16:47:31.220 ,0,1,0.,24.0,0.,24.0
1979-07-26 16:47:55.220 ,0,0,0.,24.0,0.,24.0
1979-07-26 16:48:19.220 ,0,1,0.,24.0,0.,24.0
1979-07-26 16:48:43.220 ,0,0,0.,24.0,0.,24.0
1979-07-26 16:49:07.220 ,1,1,0.,24.0,0.,24.0
1979-07-26 16:49:31.220 ,1,0,0.,24.0,0.,24.0
1979-07-26 16:49:55.220 ,2,1,0.,24.0,0.,24.0
1979-07-26 16:50:19.220 ,2,0,0.,24.0,0.,24.0
1979-07-26 16:50:43.220 ,3,1,0.,24.0,0.,24.0
1979-07-26 16:51:07.220 ,3,0,0.,24.0,0.,24.0
1979-07-26 16:51:31.220 ,4,1,0.,24.0,0.,24.0
1979-07-26 16:51:55.220 ,4,0,0.,24.0,0.,24.0
1979-07-26 16:52:19.220 ,5,1,0.,24.0,0.,24.0
1979-07-26 16:52:43.220 ,5,0,0.,24.0,0.,24.0
1979-07-26 16:53:07.220 ,6,1,0.,24.0,0.,24.0
1979-07-26 16:53:31.220 ,6,0,0.,24.0,0.,24.0
1979-07-26 16:53:55.220 ,7,1,0.,24.0,0.,24.0
1979-07-26 16:54:19.220 ,7,0,0.,24.0,0.,24.0
1979-07-26 16:54:43.220 ,7,1,0.,24.0,0.,24.0
1979-07-26 16:55:07.220 ,7,0,0.,24.0,0.,24.0
1979-07-26 16:55:31.220 ,6,1,0.,24.0,0.,24.0
1979-07-26 16:55:55.220 ,6,0,0.,24.0,0.,24.0
1979-07-26 16:56:19.220 ,5,1,0.,24.0,0.,24.0
1979-07-26 16:56:43.220 ,5,0,0.,24.0,0.,24.0
1979-07-26 16:57:07.220 ,4,1,0.,24.0,0.,24.0
1979-07-26 16:57:31.220 ,4,0,0.,24.0,0.,24.0
1979-07-26 16:57:55.220 ,3,1,0.,24.0,0.,24.0
1979-07-26 16:58:19.220 ,3,0,0.,24.0,0.,24.0
1979-07-26 16:58:43.220 ,2,1,0.,24.0,0.,24.0
1979-07-26 16:59:07.220 ,2,0,0.,24.0,0.,24.0
1979-07-26 16:59:31.220 ,1,1,0.,24.0,0.,24.0
1979-07-26 16:59:55.220 ,1,0,0.,24.0,0.,24.0
1979-07-26 17:00:19.220 ,0,1,0.,24.0,0.,24.0
1979-07-26 17:00:43.220 ,0,0,0.,24.0,0.,24.0
1979-07-26 17:01:07.220 ,0,1,0.,24.0,0.,24.0
1979-07-26 17:01:31.220 ,0,0,0.,24.0,0.,24.0
1979-07-26 17:01:55.220 ,1,1,0.,24.0,0.,24.0
1979-07-26 17:02:19.220 ,1,0,0.,24.0,0.,24.0
1979-07-26 17:02:43.220 ,2,1,0.,24.0,0.,24.0
1979-07-26 17:03:07.220 ,2,0,0.,24.0,0.,24.0
1979-07-26 17:03:31.220 ,3,1,0.,24.0,0.,24.0
1979-07-26 17:03:55.220 ,3,0,0.,24.0,0.,24.0
1979-07-26 17:04:19.220 ,4,1,0.,24.0,0.,24.0
1979-07-26 17:04:43.220 ,4,0,0.,24.0,0.,24.0
1979-07-26 17:05:07.220 ,5,1,0.,24.0,0.,24.0
1979-07-26 17:05:31.220 ,5,0,0.,24.0,0.,24.0
1979-07-26 17:05:55.220 ,6,1,0.,24.0,0.,24.0
1979-07-26 17:06:19.220 ,6,0,0.,24.0,0.,24.0
1979-07-26 17:06:43.220 ,7,0,0.,24.0,0.,24.0
1979-07-26 17:07:07.220 ,7,0,0.,24.0,0.,24.0
1979-07-26 17:07:31.220 ,3,1,0.,24.0,0.,24.0
1979-07-26 17:07:55.220 ,0,1,0.,24.0,0.,24.0
1979-07-26 17:08:19.220 ,4,1,0.,24.0,0.,24.0
1979-07-26 17:08:43.220 ,7,1,0.,24.0,0.,24.0
1979-07-26 17:09:07.220 ,3,1,0.,24.0,0.,24.0
1979-07-26 17:09:31.220 ,0,1,0.,24.0,0.,24.0
1979-07-26 17:09:55.220 ,4,1,0.,24.0,0.,24.0
1979-07-26 17:10:19.220 ,7,1,0.,24.0,0.,24.0
1979-07-26 17:10:43.220 ,3,1,0.,24.0,0.,24.0
1979-07-26 17:11:07.220 ,0,1,0.,24.0,0.,24.0
1979-07-26 17:11:31.220 ,4,1,0.,24.0,0.,24.0
1979-07-26 17:11:55.220 ,7,1,0.,24.0,0.,24.0
1979-07-26 17:12:19.220 ,3,1,0.,24.0,0.,24.0
1979-07-26 17:12:43.220 ,0,1,0.,24.0,0.,24.0
1979-07-26 17:13:07.220 ,4,1,0.,24.0,0.,24.0
1979-07-26 17:13:31.220 ,7,1,0.,24.0,0.,24.0
1979-07-26 17:13:55.220 ,3,1,0.,24.0,0.,24.0
1979-07-26 17:14:19.220 ,0,1,0.,24.0,0.,24.0
1979-07-26 17:14:43.220 ,4,1,0.,24.0,0.,24.0
1979-07-26 17:15:07.220 ,7,1,0.,24.0,0.,24.0
1979-07-26 17:15:31.220 ,3,1,0.,24.0,0.,24.0
1979-07-26 17:15:55.220 ,0,1,0.,24.0,0.,24.0
1979-07-26 17:16:19.220 ,4,1,0.,24.0,0.,24.0
1979-07-26 17:16:43.220 ,7,1,0.,24.0,0.,24.0
1979-07-26 17:17:07.220 ,3,1,0.,24.0,0.,24.0
1979-07-26 17:17:31.220 ,0,1,0.,24.0,0.,24.0
1979-07-26 17:17:55.220 ,0,0,0.,24.0,0.,24.0
1979-07-26 17:18:19.220 ,0,0,0.,24.0,0.,24.0
1979-07-26 17:18:43.220 ,5,1,0.,24.0,0.,24.0
1979-07-26 17:19:07.220 ,5,0,0.,24.0,0.,24.0
1979-07-26 17:19:31.220 ,4,1,0.,24.0,0.,24.0
1979-07-26 17:19:55.220 ,4,0,0.,24.0,0.,24.0
1979-07-26 17:20:19.220 ,3,1,1.,24.0,0.,24.0
1979-07-26 17:20:43.220 ,3,0,0.,24.0,0.,24.0
1979-07-26 17:21:07.220 ,2,1,0.,24.0,0.,24.0
1979-07-26 17:21:31.220 ,2,0,1.,24.0,0.,24.0
1979-07-26 17:21:55.220 ,1,1,0.,24.0,0.,24.0
1979-07-26 17:22:19.220 ,1,0,0.,24.0,0.,24.0
1979-07-26 17:22:43.220 ,0,1,0.,24.0,0.,24.0
1979-07-26 17:23:07.220 ,0,0,0.,24.0,0.,24.0
1979-07-26 17:23:31.220 ,0,1,0.,24.0,0.,24.0
1979-07-26 17:23:55.220 ,0,0,0.,24.0,0.,24.0
1979-07-26 17:24:19.220 ,1,1,0.,24.0,0.,24.0
1979-07-26 17:24:43.220 ,1,0,0.,24.0,0.,24.0
1979-07-26 17:25:07.220 ,2,1,0.,24.0,0.,24.0
1979-07-26 17:25:31.220 ,2,0,0.,24.0,0.,24.0
1979-07-26 17:25:55.220 ,3,1,0.,24.0,0.,24.0
1979-07-26 17:26:19.220 ,3,0,0.,24.0,0.,24.0
1979-07-26 17:26:43.220 ,4,1,0.,24.0,0.,24.0
1979-07-26 17:27:07.220 ,4,0,0.,24.0,0.,24.0
1979-07-26 17:27:31.220 ,5,1,0.,24.0,0.,24.0
1979-07-26 17:27:55.220 ,5,0,0.,24.0,0.,24.0
1979-07-26 17:28:19.220 ,6,1,0.,24.0,0.,24.0
1979-07-26 17:28:43.220 ,6,0,0.,24.0,0.,24.0
1979-07-26 17:29:07.220 ,7,1,0.,24.0,0.,24.0
1979-07-26 17:29:31.220 ,7,0,0.,24.0,0.,24.0
1979-07-26 17:29:55.220 ,7,1,0.,24.0,0.,24.0
1979-07-26 17:30:19.220 ,7,0,0.,24.0,0.,24.0
1979-07-26 17:30:43.220 ,6,1,0.,24.0,0.,24.0
1979-07-26 17:31:07.220 ,6,0,0.,24.0,0.,24.0
1979-07-26 17:31:31.220 ,5,1,0.,24.0,0.,24.0
1979-07-26 17:31:55.220 ,5,0,0.,24.0,0.,24.0
1979-07-26 17:32:19.220 ,4,1,0.,24.0,0.,24.0
1979-07-26 17:32:43.220 ,4,0,0.,24.0,0.,24.0
1979-07-26 17:33:07.220 ,3,1,0.,24.0,0.,24.0
1979-07-26 17:33:31.220 ,3,0,0.,24.0,0.,24.0
1979-07-26 17:33:55.220 ,2,1,0.,24.0,0.,24.0
1979-07-26 17:34:19.220 ,2,0,0.,24.0,0.,24.0
1979-07-26 17:34:43.220 ,1,1,0.,24.0,0.,24.0
1979-07-26 17:35:07.220 ,1,0,0.,24.0,0.,24.0
1979-07-26 17:35:31.220 ,0,1,0.,24.0,0.,24.0
1979-07-26 17:35:55.220 ,0,0,0.,24.0,0.,24.0
1979-07-26 17:36:19.220 ,0,1,0.,24.0,0.,24.0
1979-07-26 17:36:43.220 ,0,0,0.,24.0,0.,24.0
1979-07-26 17:37:07.210 ,1,1,0.,24.0,0.,24.0
1979-07-26 17:37:31.210 ,1,0,0.,24.0,0.,24.0
1979-07-26 17:37:55.210 ,2,1,0.,24.0,0.,24.0
1979-07-26 17:38:19.210 ,2,0,0.,24.0,0.,24.0
1979-07-26 17:38:43.210 ,3,1,0.,24.0,0.,24.0
1979-07-26 17:39:07.210 ,3,0,0.,24.0,0.,24.0
1979-07-26 17:39:31.210 ,4,1,0.,24.0,0.,24.0
1979-07-26 17:39:55.210 ,4,0,0.,24.0,0.,24.0
1979-07-26 17:40:19.210 ,5,1,0.,24.0,0.,24.0
1979-07-26 17:40:43.210 ,5,0,0.,24.0,0.,24.0
1979-07-26 17:41:07.210 ,6,1,0.,24.0,0.,24.0
1979-07-26 17:41:31.210 ,6,0,0.,24.0,0.,24.0
1979-07-26 17:41:55.210 ,7,1,0.,24.0,0.,24.0
1979-07-26 17:42:19.210 ,7,0,0.,24.0,0.,24.0
1979-07-26 17:42:43.210 ,7,1,0.,24.0,0.,24.0
1979-07-26 17:43:07.210 ,7,0,0.,24.0,0.,24.0
1979-07-26 17:43:31.210 ,6,1,0.,24.0,0.,24.0
1979-07-26 17:43:55.210 ,6,0,0.,24.0,0.,24.0
1979-07-26 17:44:19.210 ,5,1,0.,24.0,0.,24.0
1979-07-26 17:44:43.210 ,5,0,0.,24.0,0.,24.0
1979-07-26 17:45:07.210 ,4,1,0.,24.0,0.,24.0
1979-07-26 17:45:31.210 ,4,0,0.,24.0,0.,24.0
1979-07-26 17:45:55.210 ,3,1,0.,24.0,0.,24.0
1979-07-26 17:46:19.210 ,3,0,0.,24.0,0.,24.0
1979-07-26 17:46:43.210 ,2,1,0.,24.0,0.,24.0
1979-07-26 17:47:07.210 ,2,0,0.,24.0,0.,24.0
1979-07-26 17:47:31.210 ,1,1,0.,24.0,0.,24.0
1979-07-26 17:47:55.210 ,1,0,0.,24.0,0.,24.0
1979-07-26 17:48:19.210 ,0,1,0.,24.0,0.,24.0
1979-07-26 17:48:43.210 ,0,0,0.,24.0,0.,24.0
1979-07-26 17:49:07.210 ,0,1,0.,24.0,0.,24.0
1979-07-26 17:49:31.210 ,0,0,0.,24.0,0.,24.0
1979-07-26 17:49:55.210 ,1,1,0.,24.0,0.,24.0
1979-07-26 17:50:19.210 ,1,0,0.,24.0,0.,24.0
1979-07-26 17:50:43.210 ,2,1,0.,24.0,0.,24.0
1979-07-26 17:51:07.210 ,2,0,0.,24.0,0.,24.0
1979-07-26 17:51:31.210 ,3,1,0.,24.0,0.,24.0
1979-07-26 17:51:55.210 ,3,0,0.,24.0,0.,24.0
1979-07-26 17:52:19.210 ,4,1,0.,24.0,0.,24.0
1979-07-26 17:52:43.210 ,4,0,0.,24.0,0.,24.0
1979-07-26 17:53:07.210 ,5,1,0.,24.0,0.,24.0
1979-07-26 17:53:31.210 ,5,0,0.,24.0,0.,24.0
1979-07-26 17:53:55.210 ,6,1,0.,24.0,0.,24.0
1979-07-26 17:54:19.210 ,6,0,0.,24.0,0.,24.0
1979-07-26 17:54:43.210 ,7,0,0.,24.0,0.,24.0
1979-07-26 17:55:07.210 ,7,0,0.,24.0,0.,24.0
1979-07-26 17:55:31.210 ,3,1,0.,24.0,0.,24.0
1979-07-26 17:55:55.210 ,0,1,0.,24.0,0.,24.0
1979-07-26 17:56:19.210 ,4,1,0.,24.0,0.,24.0
1979-07-26 17:56:43.210 ,7,1,0.,24.0,0.,24.0
1979-07-26 17:57:07.210 ,3,1,0.,24.0,0.,24.0
1979-07-26 17:57:31.210 ,0,1,0.,24.0,0.,24.0
1979-07-26 17:57:55.210 ,4,1,0.,24.0,0.,24.0
1979-07-26 17:58:19.210 ,7,1,0.,24.0,0.,24.0
1979-07-26 17:58:43.210 ,3,1,0.,24.0,0.,24.0
1979-07-26 17:59:07.210 ,0,1,0.,24.0,0.,24.0
1979-07-26 17:59:31.210 ,4,1,0.,24.0,0.,24.0
1979-07-26 17:59:55.210 ,7,1,0.,24.0,0.,24.0
1979-07-26 18:00:19.210 ,3,1,0.,24.0,0.,24.0
